Weather History for KLNR - August, 2014

Change the Weather History Date:

Saturday, August 23, 2014

  Actual Average Record
Temperature  
Mean Temperature 78 °F -  
Max Temperature 84 °F 78 °F 95 °F (2012)
Min Temperature 73 °F 57 °F 48 °F (2005)
Cooling Degree Days 14    
Growing Degree Days 28 (Base 50)    
Moisture  
Dew Point 74 °F    
Average Humidity 84    
Maximum Humidity 90    
Minimum Humidity 72    
Precipitation  
Precipitation 0.32 in - - ()
Sea Level Pressure  
Sea Level Pressure 29.95 in    
Wind  
Wind Speed 3 mph (East)    
Max Wind Speed 13 mph    
Max Gust Speed -    
Visibility 5 miles    
Events Fog , Rain , Thunderstorm    
Averages and records for this station are not official NWS values.
T = Trace of Precipitation, MM = Missing Value Source: NWS Daily Summary

Daily Weather History Graph

Daily Weather History Graph

Search for Another Location

Airport or City:

Trip Planner

Search our weather history database for the weather conditions in past years. The results will help you decide how hot, cold, wet, or windy it might be!

Date:

Astronomy

Aug. 23, 2014 Rise Set
Actual Time 6:15 AM CDT 7:50 PM CDT
Civil Twilight 5:44 AM CDT 8:20 PM CDT
Nautical Twilight 5:08 AM CDT 8:56 PM CDT
Astronomical Twilight 4:29 AM CDT 9:35 PM CDT
Moon 4:30 AM CDT (8/23) 6:35 PM CDT (8/23)
Length of Visible Light 14h 35m
Length of Day
13h 35m
Waning Crescent, 3% of the Moon is Illuminated
Aug 23
Waning Crescent
Aug 25
New
Sep 2
First Quarter
Sep 8
Full
Sep 15
Last Quarter

Hourly Weather History & Observations

Time (CDT) Temp. Heat Index Dew Point Humidity Pressure Visibility Wind Dir Wind Speed Gust Speed Precip Events Conditions
12:56 AM 78.1 °F - 73.0 °F 84% 29.92 in 5.0 mi Calm Calm - N/A   Haze
1:56 AM 78.1 °F - 73.0 °F 84% 29.93 in 5.0 mi Calm Calm - N/A   Haze
2:53 AM 75.2 °F - 71.6 °F 89% 29.96 in 0.8 mi East 4.6 mph - N/A   Mist
2:56 AM 75.0 °F - 71.1 °F 87% 29.93 in 0.5 mi East 5.8 mph - N/A Fog Fog
3:01 AM 75.0 °F - 71.1 °F 87% 29.96 in 0.2 mi ESE 3.5 mph - N/A Fog Fog
3:15 AM 75.9 °F - 72.0 °F 87% 29.96 in 1.0 mi Calm Calm - N/A   Mist
3:20 AM 75.0 °F - 72.0 °F 90% 29.96 in 2.0 mi Calm Calm - N/A   Mostly Cloudy
3:33 AM 75.0 °F - 71.1 °F 87% 29.96 in 1.0 mi Calm Calm - N/A   Mist
3:40 AM 73.9 °F - 70.0 °F 87% 29.96 in 0.8 mi Calm Calm - N/A   Overcast
3:56 AM 75.9 °F - 72.0 °F 87% 29.92 in 1.5 mi Calm Calm - N/A   Overcast
4:01 AM 75.9 °F - 72.0 °F 87% 29.95 in 3.0 mi Calm Calm - N/A   Overcast
4:20 AM 75.9 °F - 71.1 °F 85% 29.94 in 1.8 mi Calm Calm - N/A   Haze
4:31 AM 75.9 °F - 72.0 °F 87% 29.94 in 0.5 mi Calm Calm - N/A Fog Fog
4:38 AM 75.9 °F - 72.0 °F 87% 29.94 in 0.2 mi East 3.5 mph - N/A Fog Fog
4:56 AM 75.9 °F - 72.0 °F 87% 29.91 in 0.5 mi East 3.5 mph - N/A Fog Fog
5:14 AM 77.0 °F - 73.0 °F 88% 29.94 in 1.0 mi East 4.6 mph - N/A   Mist
5:23 AM 77.0 °F - 73.9 °F 90% 29.94 in 0.8 mi ENE 4.6 mph - N/A   Mist
5:30 AM 78.1 °F - 73.9 °F 87% 29.94 in 1.5 mi ENE 4.6 mph - N/A   Overcast
5:51 AM 78.8 °F - 73.4 °F 83% 29.94 in 0.5 mi East 3.5 mph - N/A Fog Fog
5:56 AM 78.1 °F - 73.9 °F 87% 29.91 in 0.5 mi East 4.6 mph - N/A Fog Fog
6:56 AM 79.0 °F - 75.0 °F 88% 29.93 in 0.2 mi East 6.9 mph - N/A Fog Fog
7:37 AM 79.0 °F - 75.0 °F 88% 29.97 in 1.0 mi East 6.9 mph - N/A   Overcast
7:56 AM 79.0 °F - 75.0 °F 88% 29.94 in 0.8 mi East 4.6 mph - N/A   Overcast
8:07 AM 79.0 °F - 75.0 °F 88% 29.98 in 1.2 mi ESE 4.6 mph - N/A   Overcast
8:56 AM 79.0 °F - 75.9 °F 90% 29.95 in 1.8 mi East 3.5 mph - N/A   Overcast
9:05 AM 79.0 °F - 75.9 °F 90% 29.98 in 2.0 mi ESE 3.5 mph - N/A   Overcast
9:34 AM 80.1 °F 85.4 °F 75.9 °F 87% 29.98 in 3.0 mi East 4.6 mph - N/A   Overcast
9:54 AM 80.6 °F 86.2 °F 75.2 °F 84% 29.97 in 4.0 mi East 4.6 mph - N/A   Haze
9:56 AM 81.0 °F 87.3 °F 75.9 °F 85% 29.94 in 4.0 mi East 5.8 mph - N/A   Haze
10:12 AM 82.0 °F 89.4 °F 75.9 °F 82% 29.98 in 5.0 mi ESE 5.8 mph - N/A   Haze
10:46 AM 82.0 °F 88.6 °F 75.0 °F 79% 29.99 in 8.0 mi SE 4.6 mph - N/A   Overcast
10:56 AM 82.0 °F 88.6 °F 75.0 °F 79% 29.96 in 7.0 mi ESE 4.6 mph - N/A   Overcast
11:09 AM 82.0 °F 88.6 °F 75.0 °F 79% 29.99 in 8.0 mi ESE 5.8 mph - N/A   Overcast
11:56 AM 81.0 °F 86.7 °F 75.0 °F 82% 29.96 in 9.0 mi East 4.6 mph - N/A   Overcast
12:03 PM 81.0 °F 86.7 °F 75.0 °F 82% 29.99 in 8.0 mi East 4.6 mph - N/A   Overcast
12:13 PM 81.0 °F 86.7 °F 75.0 °F 82% 29.99 in 9.0 mi ESE 4.6 mph - N/A   Mostly Cloudy
12:20 PM 81.0 °F 86.7 °F 75.0 °F 82% 29.98 in 8.0 mi East 4.6 mph - N/A Thunderstorm Mostly Cloudy
12:35 PM 81.0 °F 86.7 °F 75.0 °F 82% 29.98 in 7.0 mi ESE 4.6 mph - N/A   Scattered Clouds
12:56 PM 81.0 °F 86.7 °F 75.0 °F 82% 29.94 in 8.0 mi SSE 3.5 mph - 0.00 in Rain , Thunderstorm Light Rain
1:05 PM 81.0 °F 86.7 °F 75.0 °F 82% 29.97 in 5.0 mi SSW 3.5 mph - 0.01 in Rain , Thunderstorm Rain
1:10 PM 81.0 °F 86.7 °F 75.0 °F 82% 29.97 in 2.5 mi SSW 5.8 mph - 0.03 in Rain , Thunderstorm Rain
1:13 PM 81.0 °F 86.7 °F 75.0 °F 82% 29.97 in 1.8 mi South 9.2 mph - 0.09 in Rain Rain
1:17 PM 80.1 °F 85.1 °F 75.0 °F 85% 29.97 in 0.8 mi Calm Calm - 0.19 in Rain Heavy Rain
1:29 PM 80.1 °F 85.4 °F 75.9 °F 87% 29.95 in 0.8 mi Calm Calm - 0.28 in Rain , Thunderstorm Heavy Thunderstorms and Rain
1:34 PM 80.1 °F 85.1 °F 75.0 °F 85% 29.95 in 1.2 mi NE 4.6 mph - 0.29 in Rain , Thunderstorm Thunderstorms and Rain
1:38 PM 80.1 °F 85.1 °F 75.0 °F 85% 29.94 in 2.5 mi Calm Calm - 0.29 in Rain , Thunderstorm Light Thunderstorms and Rain
1:44 PM 80.1 °F 85.1 °F 75.0 °F 85% 29.94 in 5.0 mi East 3.5 mph - 0.30 in Rain Light Rain
1:56 PM 80.1 °F 84.5 °F 73.9 °F 81% 29.90 in 7.0 mi East 5.8 mph - 0.31 in Rain Light Rain
2:56 PM 82.0 °F 89.4 °F 75.9 °F 82% 29.89 in 10.0 mi East 5.8 mph - 0.01 in Rain Light Rain
3:56 PM 82.0 °F 89.4 °F 75.9 °F 82% 29.89 in 7.0 mi East 10.4 mph - 0.00 in   Overcast
4:11 PM 82.9 °F 90.8 °F 75.9 °F 79% 29.91 in 9.0 mi East 12.7 mph - 0.00 in   Mostly Cloudy
4:56 PM 82.9 °F 90.8 °F 75.9 °F 79% 29.91 in 9.0 mi ESE 6.9 mph - 0.00 in   Mostly Cloudy
5:08 PM 82.9 °F 90.2 °F 75.0 °F 77% 29.94 in 10.0 mi East 5.8 mph - N/A   Mostly Cloudy
5:56 PM 84.9 °F 93.3 °F 75.0 °F 72% 29.91 in 10.0 mi East 8.1 mph - N/A   Clear
7:31 PM 81.0 °F 86.2 °F 73.9 °F 79% 29.95 in 7.0 mi ENE 4.6 mph - N/A   Mostly Cloudy
7:39 PM 81.0 °F 86.2 °F 73.9 °F 79% 29.95 in 7.0 mi ENE 5.8 mph - N/A   Partly Cloudy
7:56 PM 81.0 °F 86.2 °F 73.9 °F 79% 29.92 in 7.0 mi ENE 3.5 mph - N/A   Clear
8:56 PM 79.0 °F - 73.0 °F 82% 29.94 in 7.0 mi East 4.6 mph - N/A   Partly Cloudy
9:47 PM 78.1 °F - 72.0 °F 81% 29.98 in 9.0 mi ESE 8.1 mph - N/A   Mostly Cloudy
9:56 PM 78.1 °F - 72.0 °F 81% 29.95 in 10.0 mi East 8.1 mph - N/A   Mostly Cloudy
10:54 PM 75.2 °F - 71.6 °F 89% 29.98 in 10.0 mi East 6.9 mph - N/A   Mostly Cloudy
10:56 PM 75.9 °F - 71.1 °F 85% 29.96 in 10.0 mi East 5.8 mph - N/A   Mostly Cloudy
11:13 PM 75.9 °F - 71.1 °F 85% 29.98 in 10.0 mi ESE 3.5 mph - N/A   Overcast
11:51 PM 75.2 °F - 71.6 °F 89% 29.99 in 10.0 mi ESE 4.6 mph - 0.00 in Rain Light Rain
11:56 PM 75.9 °F - 71.1 °F 85% 29.96 in 10.0 mi ESE 3.5 mph - 0.00 in   Overcast